Terminal Aerodrome Forecast
Issued by NWS North Platte, NE

Home | Current Version | Previous Version | Text Only | Print | Product List | Glossary On
Versions: 1 2 3 4 5 6 7 8 9 10 11 12
000
FTUS43 KLBF 182300
TAFVTN
TAF
KVTN 182320Z 1900/1924 18009KT P6SM SCT250
     FM190600 22006KT P6SM BKN250
     FM191400 26006KT P6SM SKC
     FM192000 33010G18KT P6SM SKC=

USA.gov is the U.S. government's official web portal to all federal, state and local government web resources and services.